Regional Weather Roundup
Issued by NWS

Home | Current Version | Previous Version | Text Only | Print | Product List | Glossary Off
Versions: 1 2 3 4 5 6 7 8 9 10 11 12 13 14 15 16 17 18 19 20 21 22 23 24 25 26 27 28 29 30 31 32 33 34 35 36 37 38 39 40 41 42 43 44 45 46 47 48 49 50

000
ASUS43 KOAX 250310
RWRNE

WEATHER ROUNDUP FOR NEBRASKA
NATIONAL WEATHER SERVICE OMAHA NE
1000 PM CDT TUE MAY 24 2016

NOTES: SATELLITE DATA IS BEING USED TO AUGMENT CLOUD COVER ABOVE
       12000 FEET.
       "FAIR" INDICATES FEW OR NO CLOUDS BELOW 12,000 FEET WITH NO
       SIGNIFICANT WEATHER AND/OR OBSTRUCTIONS TO VISIBILITY.

  * THESE STATIONS DO NOT REPORT WEATHER SUCH AS RAIN...SNOW OR FOG.

NEZ001>004-019>022-054>056-250400-
NEBRASKA PANHANDLE

CITY           SKY/WX    TMP DP  RH WIND       PRES   REMARKS
SCOTTSBLUFF    CLOUDY    59  47  64 E15       29.84R
ALLIANCE       LGT RAIN  52  49  89 N16       29.87S
CHADRON        CLOUDY    54 N/A N/A E16       29.84F
KIMBALL        CLOUDY    53  51  92 SE6       29.83F
SIDNEY         CLOUDY    55  51  86 E8        29.81F
$$

NEZ057>060-069>072-079>082-250400-
SOUTHWEST NEBRASKA

CITY           SKY/WX    TMP DP  RH WIND       PRES   REMARKS
NORTH PLATTE   CLEAR     66  59  78 SE8       29.79R
IMPERIAL       CLOUDY    66  55  67 N22G31    29.84R THUNDER
LEXINGTON      CLOUDY    70  60  70 E8        29.78F
MCCOOK         CLOUDY    69  62  78 SE9       29.76S
OGALLALA       TSTM      55  51  87 NE8       29.89R
$$

NEZ005>010-023>029-035>040-094-250400-
NORTH CENTRAL NEBRASKA

CITY           SKY/WX    TMP DP  RH WIND       PRES   REMARKS
VALENTINE      CLOUDY    69  53  56 SE6       29.80R
AINSWORTH      MOCLDY    69  55  59 SE9       29.80R
BROKEN BOW     CLOUDY    68  59  73 SE8       29.80F
O`NEILL        CLOUDY    71  56  59 SE9       29.80F
ORD            CLOUDY    70  59  68 SE6       29.79F
THEDFORD       CLOUDY    70  58  66 S8        29.82R
$$

NEZ041-046>049-061>064-073>077-083>087-250400-
SOUTH CENTRAL NEBRASKA

CITY           SKY/WX    TMP DP  RH WIND       PRES   REMARKS
GRAND ISLAND   CLOUDY    72  60  66 SE10      29.83S
AURORA         MOCLDY    72  62  72 SE9       29.84R
HASTINGS       CLOUDY    71  60  68 SE13      29.82S
HEBRON         CLOUDY    72  63  73 SE7       29.84R
HOLDREGE       CLOUDY    70  60  70 E13       29.79F
KEARNEY *      CLOUDY    72  59  64 SE14      29.80F
YORK           MOCLDY    72  64  78 SE9       29.84F
$$

NEZ011>018-030>034-042>045-250400-
NORTHEAST NEBRASKA

CITY           SKY/WX    TMP DP  RH WIND       PRES   REMARKS
NORFOLK        CLEAR     69  56  62 SE7       29.84S
ALBION         CLOUDY    71  58  63 SE10      29.82F
BLAIR          CLEAR     72  61  67 SE8       29.86R
FREMONT        CLOUDY    70  61  74 SE3       29.85S
TEKAMAH        CLEAR     69  60  73 SE7       29.84R
WAYNE          CLEAR     70  61  73 SE10      29.86R
$$

NEZ050>053-065>068-078-088>093-250400-
SOUTHEAST NEBRASKA

CITY           SKY/WX    TMP DP  RH WIND       PRES   REMARKS
LINCOLN        CLOUDY    75  61  61 SE8       29.87R
OMAHA EPPLEY   PTCLDY    72  60  66 SE6       29.85R
BEATRICE       CLOUDY    75  62  65 SE9       29.87R
FALLS CITY     CLOUDY    73  64  73 SE12      29.85S
NEBRASKA CITY  CLOUDY    72  63  72 SE8       29.87S
PLATTSMOUTH    CLOUDY    74  65  73 SE7       29.86S
$$

NEZ044-045-051>053-067-250400-
OMAHA AREA

CITY           SKY/WX    TMP DP  RH WIND       PRES   REMARKS
OMAHA EPPLEY   PTCLDY    72  60  66 SE6       29.85R
BLAIR          CLEAR     72  61  67 SE8       29.86R
FREMONT        CLOUDY    70  61  74 SE3       29.85S
MILLARD        PTCLDY    73  61  66 SE5       29.85S
OFFUTT AFB     CLEAR     72  64  74 E7        29.84S
PLATTSMOUTH    CLOUDY    74  65  73 SE7       29.86S
WAHOO          FAIR      71  62  74 SE7       29.85S
$$




USA.gov is the U.S. government's official web portal to all federal, state and local government web resources and services.